Location: Unspecified
(41.1637°N, 24.2901°E)
Time: 07:28:43
(UTC+01:00)

ISS - Pass Details

Date: 13 December 2018
Orbit: 401 x 408 km, 51.6° (Epoch: 12 December)

Event Time Altitude Azimuth Distance (km) Brightness Sun altitude
Rises 16:30:45 0° 306° (NW) 2,318 0.5 -6.9°
Reaches altitude 10° 16:32:50 10° 306° (NW) 1,456 -0.6 -7.2°
Maximum altitude 16:36:06 88° 36° (NE) 406 -3.9 -7.8°
Drops below altitude 10° 16:39:20 10° 126° (SE) 1,446 -1.3 -8.4°
Sets 16:41:24 0° 127° (SE) 2,301 -0.3 -8.7°
